Location: *
(1.3500°S, 147.5000°W)
Time: 18:23:05
(UTC+00:00)

H-2A R/B - Pass Details

Date: 07 April 2020
Orbit: 734 x 836 km, 98.2° (Epoch: 28 May)

Event Time Altitude Azimuth Distance (km) Brightness Sun altitude
Exits shadow 05:50:57 25° 360° (N) 1,596 3.6 -29.6°
Drops below altitude 10° 05:53:01 10° 355° (N) 2,373 4.6 -30.2°
Sets 05:55:19 0° 353° (N) 3,285 5.4 -30.7°
